Location: Casilda
(33.0440°S, 61.1680°W)
Time: 16:51:43
(UTC-03:00)

ISS - Pass Details

Date: 02 December 2021
Orbit: 417 x 423 km, 51.6° (Epoch: 28 November)

Event Time Altitude Azimuth Distance (km) Brightness Sun altitude
Exits shadow 02:13:03 11° 144° (SE) 1,445 -0.3 -31.8°
Drops below altitude 10° 02:13:14 10° 143° (SE) 1,520 -0.1 -31.8°
Sets 02:15:23 0° 138° (SE) 2,390 1.1 -31.7°
